Find Starlink 33814

NORAD ID: 63582 Int'l Des: 2025-076 Owner: SPXS Country: US Constellation: starlink operational
LEOCIRCULAR

实时位置

正在加载3D地球...

关于 Starlink 33814

正在加载描述...

即将过境

Passes for default location (London). Set your location on the main map for personalized predictions.

高度历史

Loading altitude history...

两行轨道根数

1 63582U 25076P 26104.71919517 .00006178 00000-0 23380-3 0 9998
2 63582 43.0013 117.9551 0001274 273.1706 86.9000 15.27585816 57346
Epoch: Apr 14, 2026 • Age: 15 hours

当前状态

高度 493.8 km
速度 7.62 km/s
星下点 -38.89°S, 23.31°E
发射日期 Apr 14, 2025
运行时间 1 years
类型 internet

技术详情

分类 Payload
质量 575.00 kg
干质量 530.00 kg
总质量 575.00 kg
长度 0.30 m
直径 4.10 m
跨度 29.00 m
形状 Box + pan
制造商 SPXS
平台类型 Starlink V2MO
阶段状态 In Orbit
所有者/国家 SPXS/US

Most Searched